Bellefontaine, OH

12:53 PM EST on February 21, 2018 (GMT -0500)
Bellefontaine

Weather History for KEDJ - December, 2013

Change the Weather History Date:

Wednesday, December 4, 2013

  Actual Average (KDLZ) Record (KDLZ)
Temperature  
Mean Temperature 50 °F -  
Max Temperature 57 °F 42 °F 74 °F (1982)
Min Temperature 42 °F 24 °F -2 °F (1966)
Degree Days  
Heating Degree Days 16    
Moisture  
Dew Point 50 °F    
Average Humidity 95    
Maximum Humidity 100    
Minimum Humidity 88    
Precipitation  
Precipitation 0.00 in - - ()
Sea Level Pressure  
Sea Level Pressure 29.78 in    
Wind  
Wind Speed 10 mph (SSE)    
Max Wind Speed 18 mph    
Max Gust Speed 24 mph    
Visibility 8 miles    
Events      
Averages and records for this station are not official NWS values.
T = Trace of Precipitation, MM = Missing Value Source: NWS Daily Summary

Daily Weather History Graph

Daily Weather History Graph

Search for Another Location

Airport or City:

Trip Planner

Search our weather history database for the weather conditions in past years. The results will help you decide how hot, cold, wet, or windy it might be!

Date:

Astronomy

Dec. 04, 2013 Rise Set
Actual Time 7:42 AM EST 5:08 PM EST
Civil Twilight 7:11 AM EST 5:39 PM EST
Nautical Twilight 6:37 AM EST 6:13 PM EST
Astronomical Twilight 6:04 AM EST 6:46 PM EST
Moon 9:09 AM EST (12/4) 7:18 PM EST (12/4)
Length of Visible Light 10h 27m
Length of Day
9h 26m
Waxing Crescent, 4% of the Moon is Illuminated
Dec 4
Waxing Crescent
Dec 9
First Quarter
Dec 17
Full
Dec 25
Last Quarter
Jan 1
New

Hourly Weather History & Observations

Time (EST) Temp. Windchill Dew Point Humidity Pressure Visibility Wind Dir Wind Speed Gust Speed Precip Events Conditions
12:05 AM 46.4 °F 42.4 °F 44.6 °F 93% 29.84 in 9.0 mi SSE 8.1 mph - 0.00 in   Overcast
12:25 AM 44.6 °F 40.2 °F 44.6 °F 100% 29.83 in 8.0 mi SE 8.1 mph - 0.00 in   Overcast
12:45 AM 46.4 °F 42.4 °F 44.6 °F 93% 29.83 in 8.0 mi SE 8.1 mph - 0.00 in   Overcast
1:05 AM 46.4 °F 42.4 °F 44.6 °F 93% 29.83 in 9.0 mi SE 8.1 mph - 0.00 in   Overcast
1:25 AM 44.6 °F 39.7 °F 44.6 °F 100% 29.82 in 8.0 mi SE 9.2 mph - 0.00 in   Scattered Clouds
1:45 AM 44.6 °F 39.2 °F 44.6 °F 100% 29.80 in 9.0 mi SE 10.4 mph - 0.00 in   Clear
2:05 AM 44.6 °F 39.7 °F 44.6 °F 100% 29.80 in 10.0 mi SE 9.2 mph - 0.00 in   Clear
2:25 AM 44.6 °F 39.7 °F 44.6 °F 100% 29.80 in 8.0 mi SE 9.2 mph - 0.00 in   Clear
2:45 AM 44.6 °F 40.2 °F 44.6 °F 100% 29.81 in 8.0 mi SE 8.1 mph - 0.00 in   Clear
3:05 AM 44.6 °F 40.2 °F 44.6 °F 100% 29.82 in 7.0 mi SE 8.1 mph - 0.00 in   Clear
3:25 AM 44.6 °F 40.2 °F 44.6 °F 100% 29.81 in 7.0 mi ESE 8.1 mph - 0.00 in   Clear
3:45 AM 42.8 °F 38.6 °F 42.8 °F 100% 29.83 in 6.0 mi SE 6.9 mph - 0.00 in   Clear
4:05 AM 42.8 °F 38.6 °F 42.8 °F 100% 29.83 in 5.0 mi SE 6.9 mph - 0.00 in   Scattered Clouds
4:25 AM 44.6 °F 40.2 °F 44.6 °F 100% 29.83 in 6.0 mi SE 8.1 mph - 0.00 in   Mostly Cloudy
4:45 AM 44.6 °F 40.2 °F 44.6 °F 100% 29.84 in 6.0 mi SE 8.1 mph - 0.00 in   Overcast
5:05 AM 44.6 °F 40.2 °F 44.6 °F 100% 29.84 in 6.0 mi SE 8.1 mph - 0.00 in   Overcast
5:25 AM 44.6 °F 40.2 °F 44.6 °F 100% 29.85 in 6.0 mi SSE 8.1 mph - 0.00 in   Overcast
5:45 AM 44.6 °F 39.7 °F 44.6 °F 100% 29.85 in 7.0 mi SE 9.2 mph - 0.00 in   Overcast
6:05 AM 46.4 °F 41.9 °F 46.4 °F 100% 29.84 in 7.0 mi SSE 9.2 mph - 0.00 in   Overcast
6:25 AM 46.4 °F 42.4 °F 46.4 °F 100% 29.84 in 7.0 mi SSE 8.1 mph - 0.00 in   Overcast
6:45 AM 46.4 °F 42.9 °F 46.4 °F 100% 29.84 in 7.0 mi SE 6.9 mph - 0.00 in   Mostly Cloudy
7:05 AM 46.4 °F 42.9 °F 46.4 °F 100% 29.84 in 6.0 mi SE 6.9 mph - 0.00 in   Mostly Cloudy
7:25 AM 46.4 °F 42.9 °F 46.4 °F 100% 29.84 in 6.0 mi SE 6.9 mph - 0.00 in   Mostly Cloudy
7:45 AM 44.6 °F 40.7 °F 44.6 °F 100% 29.84 in 4.0 mi SSE 6.9 mph - 0.00 in   Mostly Cloudy
8:05 AM 46.4 °F 42.4 °F 46.4 °F 100% 29.85 in 5.0 mi SSE 8.1 mph - 0.00 in   Overcast
8:25 AM 48.2 °F - 48.2 °F 100% 29.85 in 4.0 mi SSE 6.9 mph - 0.00 in   Overcast
8:45 AM 48.2 °F - 48.2 °F 100% 29.86 in 4.0 mi SSE 8.1 mph - 0.00 in   Overcast
9:05 AM 48.2 °F - 48.2 °F 100% 29.86 in 5.0 mi SSE 8.1 mph - 0.00 in   Overcast
9:25 AM 48.2 °F - 48.2 °F 100% 29.86 in 5.0 mi SSE 8.1 mph - 0.00 in   Mostly Cloudy
9:45 AM 50.0 °F - 50.0 °F 100% 29.86 in 5.0 mi SSE 9.2 mph - 0.00 in   Overcast
10:05 AM 50.0 °F - 50.0 °F 100% 29.87 in 5.0 mi SSE 9.2 mph - 0.00 in   Overcast
10:25 AM 50.0 °F - 50.0 °F 100% 29.86 in 5.0 mi SE 9.2 mph - 0.00 in   Overcast
10:45 AM 51.8 °F - 51.8 °F 100% 29.85 in 5.0 mi SE 10.4 mph - 0.00 in   Mostly Cloudy
11:05 AM 51.8 °F - 51.8 °F 100% 29.84 in 7.0 mi SSE 9.2 mph - 0.00 in   Scattered Clouds
11:25 AM 51.8 °F - 51.8 °F 100% 29.82 in 7.0 mi SSE 12.7 mph - 0.00 in   Mostly Cloudy
11:45 AM 53.6 °F - 51.8 °F 94% 29.82 in 7.0 mi SSE 12.7 mph - 0.00 in   Mostly Cloudy
12:05 PM 53.6 °F - 51.8 °F 94% 29.80 in 8.0 mi SSE 11.5 mph - 0.00 in   Partly Cloudy
12:25 PM 53.6 °F - 51.8 °F 94% 29.79 in 9.0 mi SSE 12.7 mph - 0.00 in   Clear
12:45 PM 55.4 °F - 51.8 °F 88% 29.78 in 8.0 mi SSE 11.5 mph - 0.00 in   Scattered Clouds
1:05 PM 55.4 °F - 51.8 °F 88% 29.77 in 9.0 mi SSE 11.5 mph 19.6 mph 0.00 in   Mostly Cloudy
1:25 PM 55.4 °F - 51.8 °F 88% 29.76 in 9.0 mi SSE 16.1 mph - 0.00 in   Mostly Cloudy
1:45 PM 55.4 °F - 53.6 °F 94% 29.74 in 9.0 mi SE 12.7 mph 20.7 mph 0.00 in   Scattered Clouds
2:05 PM 57.2 °F - 53.6 °F 88% 29.74 in 9.0 mi SSE 15.0 mph - 0.00 in   Mostly Cloudy
2:25 PM 57.2 °F - 53.6 °F 88% 29.74 in 9.0 mi SSE 11.5 mph - 0.00 in   Overcast
2:45 PM 55.4 °F - 53.6 °F 94% 29.74 in 9.0 mi SSE 11.5 mph - 0.00 in   Overcast
3:05 PM 55.4 °F - 53.6 °F 94% 29.73 in 5.0 mi SE 13.8 mph - 0.00 in   Overcast
3:25 PM 55.4 °F - 53.6 °F 94% 29.73 in 8.0 mi SSE 11.5 mph - 0.00 in   Overcast
3:45 PM 55.4 °F - 53.6 °F 94% 29.73 in 9.0 mi SSE 13.8 mph - 0.00 in   Overcast
4:05 PM 55.4 °F - 53.6 °F 94% 29.73 in 10.0 mi SE 11.5 mph - 0.00 in   Overcast
4:25 PM 55.4 °F - 53.6 °F 94% 29.72 in 10.0 mi SE 11.5 mph - 0.00 in   Overcast
4:45 PM 57.2 °F - 53.6 °F 88% 29.72 in 10.0 mi SE 12.7 mph - 0.00 in   Overcast
5:05 PM 57.2 °F - 53.6 °F 88% 29.72 in 10.0 mi SSE 13.8 mph - 0.00 in   Mostly Cloudy
5:25 PM 57.2 °F - 53.6 °F 88% 29.72 in 10.0 mi SSE 15.0 mph - 0.00 in   Mostly Cloudy
5:45 PM 57.2 °F - 53.6 °F 88% 29.72 in 10.0 mi SSE 15.0 mph - 0.00 in   Mostly Cloudy
6:05 PM 57.2 °F - 53.6 °F 88% 29.71 in 10.0 mi SSE 12.7 mph 19.6 mph 0.00 in   Scattered Clouds
6:25 PM 57.2 °F - 53.6 °F 88% 29.72 in 10.0 mi SSE 12.7 mph - 0.00 in   Scattered Clouds
6:45 PM 57.2 °F - 53.6 °F 88% 29.72 in 10.0 mi SSE 18.4 mph - 0.00 in   Mostly Cloudy
7:05 PM 57.2 °F - 53.6 °F 88% 29.72 in 10.0 mi SSE 17.3 mph 20.7 mph 0.00 in   Mostly Cloudy
7:25 PM 57.2 °F - 53.6 °F 88% 29.71 in 10.0 mi SSE 15.0 mph - 0.00 in   Mostly Cloudy
7:45 PM 57.2 °F - 53.6 °F 88% 29.71 in 10.0 mi SSE 16.1 mph 24.2 mph 0.00 in   Scattered Clouds
8:05 PM 57.2 °F - 53.6 °F 88% 29.71 in 10.0 mi SSE 16.1 mph - 0.00 in   Clear
8:25 PM 57.2 °F - 53.6 °F 88% 29.71 in 10.0 mi SSE 13.8 mph - 0.00 in   Mostly Cloudy
8:45 PM 57.2 °F - 53.6 °F 88% 29.71 in 10.0 mi SSE 13.8 mph - 0.00 in   Mostly Cloudy
9:05 PM 57.2 °F - 53.6 °F 88% 29.71 in 10.0 mi SSE 15.0 mph - 0.00 in   Partly Cloudy
9:25 PM 57.2 °F - 53.6 °F 88% 29.71 in 10.0 mi South 15.0 mph 19.6 mph 0.00 in   Clear
9:45 PM 57.2 °F - 53.6 °F 88% 29.71 in 10.0 mi SSE 13.8 mph 20.7 mph 0.00 in   Clear
10:05 PM 57.2 °F - 53.6 °F 88% 29.71 in 10.0 mi SSE 16.1 mph 21.9 mph 0.00 in   Partly Cloudy
10:25 PM 55.4 °F - 53.6 °F 94% 29.71 in 10.0 mi SSE 16.1 mph - 0.00 in   Scattered Clouds
10:45 PM 55.4 °F - 53.6 °F 94% 29.71 in 10.0 mi South 16.1 mph - 0.00 in   Partly Cloudy
11:05 PM 55.4 °F - 53.6 °F 94% 29.71 in 10.0 mi SSE 16.1 mph - 0.00 in   Partly Cloudy
11:25 PM 55.4 °F - 53.6 °F 94% 29.71 in 10.0 mi South 15.0 mph - 0.00 in   Scattered Clouds
11:45 PM 55.4 °F - 53.6 °F 94% 29.71 in 10.0 mi South 16.1 mph - 0.00 in   Scattered Clouds